{"data":{"norad_id":67098,"epoch":"2026-05-25T03:55:17.042880Z","epoch_age_seconds":54144,"freshness":"FRESH","line1":"1 67098U 25298Z   26145.16339170  .00002043  00000+0  17897-3 0  9997","line2":"2 67098  70.0010 181.5915 0004158 267.3072  92.7611 14.98335878 24676","mean_motion":14.98335878,"eccentricity":0.0004158,"inclination_deg":70.001,"raan_deg":181.5915,"arg_perigee_deg":267.3072,"mean_anomaly_deg":92.7611,"bstar":0.00017897,"rev_number":2467,"period_min":96.106622096117,"perigee_km":569.14783112773,"apogee_km":574.92759641971,"semimajor_km":6950.1747137737,"source":"CELESTRAK","updated_at":"2026-05-25T13:38:21.471410Z"}}